{"data":{"norad_id":66730,"epoch":"2026-05-25T03:43:46.742304Z","epoch_age_seconds":71837,"freshness":"FRESH","line1":"1 66730U 25276BS  26145.15540211  .00006075  00000+0  28387-3 0  9999","line2":"2 66730  97.4172 219.1654 0002045  84.5070 275.6399 15.20159844 26937","mean_motion":15.20159844,"eccentricity":0.0002045,"inclination_deg":97.4172,"raan_deg":219.1654,"arg_perigee_deg":84.507,"mean_anomaly_deg":275.6399,"bstar":0.00028387,"rev_number":2693,"period_min":94.726880576645,"perigee_km":503.95036615624,"apogee_km":506.76571562796,"semimajor_km":6883.4950408921,"source":"CELESTRAK","updated_at":"2026-05-25T13:38:13.372036Z"}}